Weather Service Report


275 
ASUS45 KSLC 202310
RWRUT 

UTAH REGIONAL WEATHER ROUNDUP
NATIONAL WEATHER SERVICE SALT LAKE CITY UT
500 PM MDT MON SEP 20 2021

UTZ101>105-107>111-210000-

NORTHERN UTAH
  
CITY           SKY/WX    TMP DP  RH WIND       PRES   REMARKS
BRIGHAM CITY   SUNNY     64  20  18 W5G17     30.33S                  
DUGWAY         MOSUNNY   65  24  20 W8        30.31F                  
HILL AFB       MOSUNNY   60  30  31 N8        30.32F                  
LOGAN          MOSUNNY   61  29  29 N5        30.32S                  
OGDEN          SUNNY     63  31  30 VRB6      30.32F                  
SALT LAKE CITY MOSUNNY   65  28  24 W9        30.32S                  
TOOELE VALLEY  SUNNY     63  37  39 N5        30.34S                  
WENDOVER       SUNNY     66  28  24 S7        30.33S                  
HEBER CITY       N/A     63  23  22 SW6       30.29S                  
WEST JORDAN    SUNNY     62  36  38 NW12      30.34R                  

$$

UTZ024>027-106-112>120-210000-

CENTRAL/NORTHEAST UTAH
  
CITY           SKY/WX    TMP DP  RH WIND       PRES   REMARKS
PROVO AIRPORT  SUNNY     64  32  30 W9        30.32F                  
MOAB/CANYONLAN SUNNY     71  15  11 NW6       30.17F                  
DELTA          SUNNY     63  28  27 NW8G16    30.32S                  
MANTI            N/A     64  27  24 S6        30.31S                  
PRICE          SUNNY     67  14  13 N12G22    30.25S                  
RICHFIELD      SUNNY     66  28  24 NE10      30.29S                  
DUCHESNE       CLEAR     66  12  12 W14G24    30.24F                  
VERNAL         PTSUNNY   64  27  24 S5G17     30.24F                  

$$

UTZ121>131-210000-

SOUTHERN UTAH
  
CITY           SKY/WX    TMP DP  RH WIND       PRES   REMARKS
BRYCE CANYON   SUNNY     64  25  22 NW14      30.34F                  
CEDAR CITY     SUNNY     68  21  16 N15       30.28S                  
MILFORD        SUNNY     66  21  18 N12G25    30.29F                  
PANGUITCH        N/A     64  23  20 NW12G18   30.34S                  
ST GEORGE      CLEAR     84  30  14 CALM      30.09F                  
HANKSVILLE     SUNNY     73  12   9 N5        30.20S                  
KANAB            N/A    N/A N/A N/A W3        30.20F                  
BLANDING         N/A     72  15  11 NW17      30.27F                  

$$

REGIONAL REPORTS     COLORADO/ARIZONA
  
CITY           SKY/WX    TMP DP  RH WIND       PRES   REMARKS
CRAIG, CO      MOSUNNY   60  24  25 W20       30.27F                  
GRAND JUNCTION SUNNY     71  20  14 W9        30.17F                  
RIFLE, CO      SUNNY     68  16  13 NW14G25   30.20S                  
MONTROSE, CO   SUNNY     68  25  19 NW10      30.20F                  
CORTEZ, CO     SUNNY     73  24  16 W14G24    30.19S                  
COLORADO CITY    N/A     81  21  11 NW8G16    30.22S                  
PAGE, AZ       SUNNY     79  27  14 E8        30.13F                  
GRAND CANYON   MOSUNNY   73  29  19 W10       30.27F                  
KINGMAN, AZ    SUNNY     88  35  15 N10       30.08F                  
FLAGSTAFF, AZ  PTSUNNY   73  34  23 SW10      30.28F                  

$$

REGIONAL REPORTS    NEVADA/IDAHO/WYOMING
  
CITY           SKY/WX    TMP DP  RH WIND       PRES   REMARKS
LAS VEGAS, NV  MOSUNNY   87  28  12 N8        30.05F                  
ELY, NY        SUNNY     66  14  13 NE13      30.33S                  
ELKO, NV       SUNNY     68  25  19 CALM      30.32F                  
POCATELLO, ID  MOSUNNY   59  29  31 W12       30.35F                  
BURLEY, ID     SUNNY     61  37  41 W10G20    30.34S                  
EVANSTON, WY   PTSUNNY   54  22  28 W8G22     30.35R                  
ROCK SPRINGS,  CLOUDY    54  17  23 W21G36    30.29S                  
KEMMERER, WY   MOSUNNY   46  21  36 W12G24    30.36R                  

$$
  

Return to Home page


Western Regional Climate Center, wrcc@dri.edu